Overview Statistics Trail Chart Weather Telemetry Raw packets
 

This is the latest recevied weather packets stored in our database for station/object NW5W-12. If no packets are shown the sender has not sent any weather packets the latest 10 day(s).

<< 80 81 82 83 84 85 86 >>
Time Temp. Humidity Pressure Rain* Wind** Luminosity Snow
1788117540 21.67° C 57% 1020.7 hPa 1.02 mm - - -
1788117240 21.67° C 58% 1020.7 hPa 1.02 mm - - -
1788116956 21.67° C 60% 1020.8 hPa 1.02 mm - - -
1788116640 21.67° C 57% 1020.8 hPa 1.02 mm - - -
1788116340 22.22° C 58% 1020.8 hPa 1.02 mm - - -
1788116039 22.22° C 59% 1020.8 hPa 1.02 mm - - -
1788115740 21.67° C 59% 1020.9 hPa 1.02 mm - - -
1788115440 21.67° C 58% 1020.9 hPa 1.02 mm - - -
1788115139 21.67° C 58% 1020.9 hPa 1.02 mm - - -
1788114840 21.11° C 58% 1020.9 hPa 1.02 mm - - -
1788114540 21.11° C 60% 1020.9 hPa 1.02 mm - - -
1788114239 21.11° C 60% 1020.9 hPa 1.02 mm - - -
1788113939 21.11° C 60% 1020.9 hPa 1.02 mm - - -
1788113640 21.11° C 61% 1020.9 hPa 1.02 mm - - -
1788113339 20.56° C 57% 1020.8 hPa 1.02 mm - - -
1788113039 20.56° C 59% 1020.8 hPa 1.02 mm - - -
1788112740 20.56° C 61% 1020.8 hPa 1.02 mm - - -
1788112440 20° C 63% 1020.8 hPa 1.02 mm - - -
1788112140 19.44° C 69% 1020.8 hPa 1.02 mm - - -
1788111840 18.89° C 70% 1020.8 hPa 1.02 mm - - -
1788111540 18.89° C 70% 1020.8 hPa 1.02 mm - - -
1788111239 18.89° C 71% 1020.8 hPa 1.02 mm - - -
1788110940 18.33° C 74% 1020.8 hPa 1.02 mm - - -
1788110639 17.78° C 75% 1020.8 hPa 1.02 mm - - -
1788110340 17.22° C 77% 1020.7 hPa 1.02 mm - - -

* Rain since midnight (hover to see other rain measurements)
** Current wind speed in m/s (hover to see current wind gust speed)